Time,TemperatureF,DewpointF,PressureIn,WindDirection,WindDirectionDegrees,WindSpeedMPH,WindSpeedGustMPH,Humidity,HourlyPrecipIn,Conditions,Clouds,dailyrainin,SoftwareType,DateUTC
2013-12-23 00:03:00,18.4,15.3,30.12,WSW,248,1.2,4.4,88,0.00,,,0.00,WUHU216HW,2013-12-23 06:03:00,
2013-12-23 00:08:00,18.2,15.1,30.12,West,270,2.4,2.4,88,0.00,,,0.00,WUHU216HW,2013-12-23 06:08:00,
2013-12-23 00:13:00,17.6,14.3,30.12,West,270,2.0,2.8,87,0.00,,,0.00,WUHU216HW,2013-12-23 06:13:00,
2013-12-23 00:18:00,17.5,14.1,30.12,West,270,0.8,2.8,87,0.00,,,0.00,WUHU216HW,2013-12-23 06:18:00,
2013-12-23 00:23:00,17.3,14.0,30.13,WNW,293,2.4,2.4,87,0.00,,,0.00,WUHU216HW,2013-12-23 06:23:00,
2013-12-23 00:28:00,17.1,14.0,30.13,West,270,3.0,3.7,88,0.00,,,0.00,WUHU216HW,2013-12-23 06:28:00,
2013-12-23 00:34:00,17.1,14.0,30.13,WSW,248,0.4,3.2,88,0.00,,,0.00,WUHU216HW,2013-12-23 06:34:00,
2013-12-23 00:39:00,16.9,13.9,30.13,West,270,3.0,3.0,88,0.00,,,0.00,WUHU216HW,2013-12-23 06:39:00,
2013-12-23 00:44:00,17.1,14.3,30.13,West,270,1.2,3.7,89,0.00,,,0.00,WUHU216HW,2013-12-23 06:44:00,
2013-12-23 00:49:00,17.3,14.5,30.13,West,270,0.8,4.4,89,0.00,,,0.00,WUHU216HW,2013-12-23 06:49:00,
2013-12-23 00:54:00,17.3,14.5,30.13,West,270,2.8,4.4,89,0.00,,,0.00,WUHU216HW,2013-12-23 06:54:00,
2013-12-23 00:59:00,17.5,14.7,30.13,North,0,0.0,2.8,89,0.00,,,0.00,WUHU216HW,2013-12-23 06:59:00,
2013-12-23 01:04:00,17.6,14.9,30.13,North,0,0.0,2.8,89,0.00,,,0.00,WUHU216HW,2013-12-23 07:04:00,
2013-12-23 01:09:00,17.8,15.0,30.13,North,0,0.0,0.0,89,0.00,,,0.00,WUHU216HW,2013-12-23 07:09:00,
2013-12-23 01:14:00,18.2,15.7,30.14,North,0,0.0,0.0,90,0.00,,,0.00,WUHU216HW,2013-12-23 07:14:00,
2013-12-23 01:19:00,18.2,15.7,30.14,North,0,0.0,0.0,90,0.00,,,0.00,WUHU216HW,2013-12-23 07:19:00,
2013-12-23 01:24:00,18.2,15.4,30.14,North,0,0.0,0.0,89,0.00,,,0.00,WUHU216HW,2013-12-23 07:24:00,
2013-12-23 01:30:00,18.2,15.7,30.14,North,0,0.0,0.0,90,0.00,,,0.00,WUHU216HW,2013-12-23 07:30:00,
2013-12-23 01:35:00,18.2,15.4,30.14,North,0,0.0,0.0,89,0.00,,,0.00,WUHU216HW,2013-12-23 07:35:00,
2013-12-23 01:40:00,18.2,15.4,30.14,North,0,0.0,0.0,89,0.00,,,0.00,WUHU216HW,2013-12-23 07:40:00,
2013-12-23 01:45:00,18.2,15.7,30.15,North,0,0.0,0.0,90,0.00,,,0.00,WUHU216HW,2013-12-23 07:45:00,
2013-12-23 01:50:00,18.2,15.7,30.15,North,0,0.0,0.0,90,0.00,,,0.00,WUHU216HW,2013-12-23 07:50:00,
2013-12-23 01:55:00,18.4,15.8,30.15,North,0,0.0,0.0,90,0.00,,,0.00,WUHU216HW,2013-12-23 07:55:00,
2013-12-23 02:00:00,18.4,15.8,30.15,North,0,0.0,0.0,90,0.00,,,0.00,WUHU216HW,2013-12-23 08:00:00,
2013-12-23 02:05:00,18.4,15.8,30.15,North,0,0.0,0.0,90,0.00,,,0.00,WUHU216HW,2013-12-23 08:05:00,
2013-12-23 02:10:00,18.4,15.8,30.15,North,0,0.0,0.0,90,0.00,,,0.00,WUHU216HW,2013-12-23 08:10:00,
2013-12-23 02:15:00,18.4,15.8,30.16,North,0,0.0,0.0,90,0.00,,,0.00,WUHU216HW,2013-12-23 08:15:00,
2013-12-23 02:20:00,18.4,15.8,30.16,WSW,248,2.4,2.4,90,0.00,,,0.00,WUHU216HW,2013-12-23 08:20:00,
2013-12-23 02:25:00,18.4,15.8,30.16,WSW,248,2.8,2.8,90,0.00,,,0.00,WUHU216HW,2013-12-23 08:25:00,
2013-12-23 02:30:00,18.5,16.0,30.16,WSW,248,2.2,2.8,90,0.00,,,0.00,WUHU216HW,2013-12-23 08:30:00,
2013-12-23 02:35:00,18.4,15.8,30.17,WSW,248,1.8,3.7,90,0.00,,,0.00,WUHU216HW,2013-12-23 08:35:00,
2013-12-23 02:40:00,18.4,15.8,30.17,WNW,293,2.4,3.7,90,0.00,,,0.00,WUHU216HW,2013-12-23 08:40:00,
2013-12-23 02:45:00,18.4,15.8,30.17,West,270,2.0,3.4,90,0.00,,,0.00,WUHU216HW,2013-12-23 08:45:00,
2013-12-23 02:50:00,18.4,15.8,30.17,WSW,248,1.4,2.8,90,0.00,,,0.00,WUHU216HW,2013-12-23 08:50:00,
2013-12-23 02:55:00,18.2,15.7,30.17,West,270,1.8,2.8,90,0.00,,,0.00,WUHU216HW,2013-12-23 08:55:00,
2013-12-23 03:00:00,18.0,15.2,30.18,West,270,2.2,3.0,89,0.00,,,0.00,WUHU216HW,2013-12-23 09:00:00,
2013-12-23 03:05:00,18.0,15.2,30.17,West,270,3.0,3.0,89,0.00,,,0.00,WUHU216HW,2013-12-23 09:05:00,
2013-12-23 03:10:00,18.0,15.2,30.17,WSW,248,1.2,3.0,89,0.00,,,0.00,WUHU216HW,2013-12-23 09:10:00,
2013-12-23 03:15:00,17.6,14.9,30.17,WSW,248,1.2,2.8,89,0.00,,,0.00,WUHU216HW,2013-12-23 09:15:00,
2013-12-23 03:20:00,17.6,14.9,30.17,WSW,248,2.4,2.8,89,0.00,,,0.00,WUHU216HW,2013-12-23 09:20:00,
2013-12-23 03:25:00,17.5,14.7,30.18,West,270,1.8,3.0,89,0.00,,,0.00,WUHU216HW,2013-12-23 09:25:00,
2013-12-23 03:30:00,17.3,14.5,30.18,WSW,248,0.4,2.8,89,0.00,,,0.00,WUHU216HW,2013-12-23 09:30:00,
2013-12-23 03:35:00,17.1,14.3,30.18,WSW,248,2.4,2.8,89,0.00,,,0.00,WUHU216HW,2013-12-23 09:35:00,
2013-12-23 03:40:00,16.9,14.1,30.18,WSW,248,2.4,2.4,89,0.00,,,0.00,WUHU216HW,2013-12-23 09:40:00,
2013-12-23 03:45:00,16.9,14.1,30.18,North,0,0.0,2.4,89,0.00,,,0.00,WUHU216HW,2013-12-23 09:45:00,
2013-12-23 03:50:00,16.9,14.1,30.18,North,0,0.0,0.0,89,0.00,,,0.00,WUHU216HW,2013-12-23 09:50:00,
2013-12-23 03:55:00,17.1,14.3,30.18,North,0,0.0,0.0,89,0.00,,,0.00,WUHU216HW,2013-12-23 09:55:00,
2013-12-23 04:00:00,17.3,14.5,30.19,North,0,0.0,0.0,89,0.00,,,0.00,WUHU216HW,2013-12-23 10:00:00,
2013-12-23 04:06:00,17.5,14.7,30.18,North,0,0.0,0.0,89,0.00,,,0.00,WUHU216HW,2013-12-23 10:06:00,
2013-12-23 04:11:00,17.5,14.7,30.18,North,0,0.0,0.0,89,0.00,,,0.00,WUHU216HW,2013-12-23 10:11:00,
2013-12-23 04:16:00,17.6,14.9,30.19,North,0,0.0,0.0,89,0.00,,,0.00,WUHU216HW,2013-12-23 10:16:00,
2013-12-23 04:21:00,17.6,14.9,30.19,North,0,0.0,0.0,89,0.00,,,0.00,WUHU216HW,2013-12-23 10:21:00,
2013-12-23 04:26:00,17.6,14.9,30.19,North,0,0.0,0.0,89,0.00,,,0.00,WUHU216HW,2013-12-23 10:26:00,
2013-12-23 04:31:00,17.5,14.7,30.19,North,0,0.0,0.0,89,0.00,,,0.00,WUHU216HW,2013-12-23 10:31:00,
2013-12-23 04:36:00,17.5,14.7,30.19,North,0,0.0,0.0,89,0.00,,,0.00,WUHU216HW,2013-12-23 10:36:00,
2013-12-23 04:41:00,17.6,14.9,30.19,North,0,0.0,0.0,89,0.00,,,0.00,WUHU216HW,2013-12-23 10:41:00,
2013-12-23 04:46:00,17.6,14.9,30.19,North,0,0.0,0.0,89,0.00,,,0.00,WUHU216HW,2013-12-23 10:46:00,
2013-12-23 04:51:00,18.0,15.2,30.19,North,0,0.0,0.0,89,0.00,,,0.00,WUHU216HW,2013-12-23 10:51:00,
2013-12-23 04:56:00,18.4,15.8,30.19,North,0,0.0,0.0,90,0.00,,,0.00,WUHU216HW,2013-12-23 10:56:00,
2013-12-23 05:01:00,18.7,16.2,30.19,WNW,293,0.4,0.4,90,0.00,,,0.00,WUHU216HW,2013-12-23 11:01:00,
2013-12-23 05:06:00,18.7,16.2,30.19,WNW,293,0.4,1.4,90,0.00,,,0.00,WUHU216HW,2013-12-23 11:06:00,
2013-12-23 05:11:00,18.5,16.0,30.20,West,270,0.8,1.4,90,0.00,,,0.00,WUHU216HW,2013-12-23 11:11:00,
2013-12-23 05:16:00,18.4,15.8,30.20,SW,225,0.2,2.0,90,0.00,,,0.00,WUHU216HW,2013-12-23 11:16:00,
2013-12-23 05:21:00,18.4,15.8,30.20,SW,225,0.0,2.0,90,0.00,,,0.00,WUHU216HW,2013-12-23 11:21:00,
2013-12-23 05:26:00,18.4,15.8,30.21,SW,225,0.0,0.4,90,0.00,,,0.00,WUHU216HW,2013-12-23 11:26:00,
2013-12-23 05:31:00,18.4,15.8,30.21,SW,225,0.0,0.0,90,0.00,,,0.00,WUHU216HW,2013-12-23 11:31:00,
2013-12-23 05:36:00,18.4,15.8,30.21,SW,225,0.0,0.0,90,0.00,,,0.00,WUHU216HW,2013-12-23 11:36:00,
2013-12-23 05:41:00,18.4,15.8,30.21,SW,225,0.2,0.2,90,0.00,,,0.00,WUHU216HW,2013-12-23 11:41:00,
2013-12-23 05:46:00,18.4,15.8,30.21,SW,225,0.2,0.2,90,0.00,,,0.00,WUHU216HW,2013-12-23 11:46:00,
2013-12-23 05:51:00,18.4,15.8,30.21,SW,225,0.0,0.4,90,0.00,,,0.00,WUHU216HW,2013-12-23 11:51:00,
2013-12-23 05:56:00,18.5,16.0,30.21,WSW,248,0.0,0.4,90,0.00,,,0.00,WUHU216HW,2013-12-23 11:56:00,
2013-12-23 06:01:00,18.5,16.0,30.21,WSW,248,0.0,0.2,90,0.00,,,0.00,WUHU216HW,2013-12-23 12:01:00,
2013-12-23 06:06:00,18.7,16.2,30.22,WSW,248,0.4,0.4,90,0.00,,,0.00,WUHU216HW,2013-12-23 12:06:00,
2013-12-23 06:11:00,18.9,16.4,30.22,WSW,248,0.0,0.4,90,0.00,,,0.00,WUHU216HW,2013-12-23 12:11:00,
2013-12-23 06:16:00,19.1,16.6,30.22,WSW,248,0.4,0.4,90,0.00,,,0.00,WUHU216HW,2013-12-23 12:16:00,
2013-12-23 06:21:00,19.1,16.6,30.23,SW,225,0.0,1.0,90,0.00,,,0.00,WUHU216HW,2013-12-23 12:21:00,
2013-12-23 06:26:00,19.1,16.6,30.23,SW,225,0.0,1.0,90,0.00,,,0.00,WUHU216HW,2013-12-23 12:26:00,
2013-12-23 06:31:00,19.1,16.6,30.23,SW,225,1.0,1.0,90,0.00,,,0.00,WUHU216HW,2013-12-23 12:31:00,
2013-12-23 06:36:00,19.1,16.6,30.23,SW,225,0.0,1.0,90,0.00,,,0.00,WUHU216HW,2013-12-23 12:36:00,
2013-12-23 06:41:00,19.1,16.6,30.23,SW,225,0.2,0.4,90,0.00,,,0.00,WUHU216HW,2013-12-23 12:41:00,
2013-12-23 06:46:00,19.1,16.6,30.23,SW,225,0.0,0.4,90,0.00,,,0.00,WUHU216HW,2013-12-23 12:46:00,
2013-12-23 06:51:00,19.1,16.6,30.24,SW,225,0.2,0.2,90,0.00,,,0.00,WUHU216HW,2013-12-23 12:51:00,
2013-12-23 06:56:00,19.1,16.6,30.24,SW,225,0.0,0.2,90,0.00,,,0.00,WUHU216HW,2013-12-23 12:56:00,
2013-12-23 07:01:00,19.1,16.6,30.24,SW,225,0.0,0.0,90,0.00,,,0.00,WUHU216HW,2013-12-23 13:01:00,
2013-12-23 07:06:00,19.1,16.6,30.24,SW,225,0.0,0.0,90,0.00,,,0.00,WUHU216HW,2013-12-23 13:06:00,
2013-12-23 07:11:00,19.3,16.7,30.24,SW,225,0.0,0.0,90,0.00,,,0.00,WUHU216HW,2013-12-23 13:11:00,
2013-12-23 07:16:00,19.1,16.6,30.24,SW,225,0.0,0.0,90,0.00,,,0.00,WUHU216HW,2013-12-23 13:16:00,
2013-12-23 07:21:00,19.4,16.9,30.24,SW,225,2.0,2.0,90,0.00,,,0.00,WUHU216HW,2013-12-23 13:21:00,
2013-12-23 07:26:00,19.4,16.9,30.25,SW,225,1.0,2.0,90,0.00,,,0.00,WUHU216HW,2013-12-23 13:26:00,
2013-12-23 07:31:00,19.6,17.1,30.25,SSW,203,0.2,2.0,90,0.00,,,0.00,WUHU216HW,2013-12-23 13:31:00,
2013-12-23 07:36:00,19.8,17.3,30.25,SSW,203,1.4,1.4,90,0.00,,,0.00,WUHU216HW,2013-12-23 13:36:00,
2013-12-23 07:41:00,19.6,16.8,30.26,SSW,203,1.0,2.0,89,0.00,,,0.00,WUHU216HW,2013-12-23 13:41:00,
2013-12-23 07:46:00,19.6,16.8,30.26,SW,225,2.2,2.8,89,0.00,,,0.00,WUHU216HW,2013-12-23 13:46:00,
2013-12-23 07:51:00,19.6,17.1,30.26,SW,225,0.8,2.8,90,0.00,,,0.00,WUHU216HW,2013-12-23 13:51:00,
2013-12-23 07:56:00,19.8,17.3,30.26,WSW,248,0.8,2.8,90,0.00,,,0.00,WUHU216HW,2013-12-23 13:56:00,
2013-12-23 08:01:00,19.6,17.1,30.26,WSW,248,0.8,1.8,90,0.00,,,0.00,WUHU216HW,2013-12-23 14:01:00,
2013-12-23 08:06:00,19.8,17.3,30.26,SSW,203,1.2,2.2,90,0.00,,,0.00,WUHU216HW,2013-12-23 14:06:00,
2013-12-23 08:11:00,19.8,17.3,30.26,WSW,248,0.4,2.2,90,0.00,,,0.00,WUHU216HW,2013-12-23 14:11:00,
2013-12-23 08:16:00,19.8,17.3,30.26,SW,225,2.0,2.0,90,0.00,,,0.00,WUHU216HW,2013-12-23 14:16:00,
2013-12-23 08:21:00,20.0,17.5,30.26,WSW,248,2.8,2.8,90,0.00,,,0.00,WUHU216HW,2013-12-23 14:21:00,
2013-12-23 08:27:00,20.3,17.8,30.26,WSW,248,1.2,2.8,90,0.00,,,0.00,WUHU216HW,2013-12-23 14:27:00,
2013-12-23 08:32:00,20.5,18.0,30.26,WSW,248,0.8,1.2,90,0.00,,,0.00,WUHU216HW,2013-12-23 14:32:00,
2013-12-23 08:37:00,21.1,18.3,30.26,WSW,248,1.2,1.2,89,0.00,,,0.00,WUHU216HW,2013-12-23 14:37:00,
2013-12-23 08:42:00,21.4,18.6,30.26,WSW,248,1.4,1.4,89,0.00,,,0.00,WUHU216HW,2013-12-23 14:42:00,
2013-12-23 08:47:00,21.8,18.7,30.26,SSW,203,3.7,3.7,88,0.00,,,0.00,WUHU216HW,2013-12-23 14:47:00,
2013-12-23 08:52:00,21.8,18.5,30.26,SW,225,3.2,3.7,87,0.00,,,0.00,WUHU216HW,2013-12-23 14:52:00,
2013-12-23 08:57:00,21.4,18.1,30.26,SW,225,2.4,3.2,87,0.00,,,0.00,WUHU216HW,2013-12-23 14:57:00,
2013-12-23 09:02:00,21.1,17.5,30.27,WSW,248,2.8,4.4,86,0.00,,,0.00,WUHU216HW,2013-12-23 15:02:00,
2013-12-23 09:07:00,20.9,17.6,30.27,SSW,203,2.2,4.4,87,0.00,,,0.00,WUHU216HW,2013-12-23 15:07:00,
2013-12-23 09:12:00,20.7,17.4,30.27,SSW,203,2.2,4.4,87,0.00,,,0.00,WUHU216HW,2013-12-23 15:12:00,
2013-12-23 09:17:00,20.5,17.2,30.27,SW,225,2.0,4.4,87,0.00,,,0.00,WUHU216HW,2013-12-23 15:17:00,
2013-12-23 09:22:00,20.5,17.2,30.27,WSW,248,4.2,4.4,87,0.00,,,0.00,WUHU216HW,2013-12-23 15:22:00,
2013-12-23 09:27:00,20.9,17.6,30.27,SSW,203,3.0,4.2,87,0.00,,,0.00,WUHU216HW,2013-12-23 15:27:00,
2013-12-23 09:32:00,20.9,17.6,30.28,South,180,1.4,4.4,87,0.00,,,0.00,WUHU216HW,2013-12-23 15:32:00,
2013-12-23 09:37:00,20.9,17.3,30.28,WSW,248,4.0,5.2,86,0.00,,,0.00,WUHU216HW,2013-12-23 15:37:00,
2013-12-23 09:42:00,20.7,17.1,30.28,SSW,203,4.9,5.2,86,0.00,,,0.00,WUHU216HW,2013-12-23 15:42:00,
2013-12-23 09:47:00,20.9,17.3,30.28,South,180,2.8,4.9,86,0.00,,,0.00,WUHU216HW,2013-12-23 15:47:00,
2013-12-23 09:52:00,21.2,17.4,30.28,South,180,2.0,4.2,85,0.00,,,0.00,WUHU216HW,2013-12-23 15:52:00,
2013-12-23 09:57:00,21.2,17.6,30.28,South,180,2.4,4.4,86,0.00,,,0.00,WUHU216HW,2013-12-23 15:57:00,
2013-12-23 10:02:00,21.8,17.9,30.28,SSW,203,3.7,4.4,85,0.00,,,0.00,WUHU216HW,2013-12-23 16:02:00,
2013-12-23 10:07:00,21.8,17.6,30.28,SSW,203,4.4,4.7,84,0.00,,,0.00,WUHU216HW,2013-12-23 16:07:00,
2013-12-23 10:12:00,21.8,17.6,30.28,SW,225,2.8,4.7,84,0.00,,,0.00,WUHU216HW,2013-12-23 16:12:00,
2013-12-23 10:17:00,22.0,17.3,30.28,SW,225,3.7,4.2,82,0.00,,,0.00,WUHU216HW,2013-12-23 16:17:00,
2013-12-23 10:22:00,22.1,17.7,30.28,SW,225,3.2,4.9,83,0.00,,,0.00,WUHU216HW,2013-12-23 16:22:00,
2013-12-23 10:27:00,22.3,17.6,30.28,South,180,2.2,5.6,82,0.00,,,0.00,WUHU216HW,2013-12-23 16:27:00,
2013-12-23 10:32:00,22.0,16.7,30.29,WSW,248,4.0,5.6,80,0.00,,,0.00,WUHU216HW,2013-12-23 16:32:00,
2013-12-23 10:37:00,21.6,16.9,30.29,SW,225,5.9,5.9,82,0.00,,,0.00,WUHU216HW,2013-12-23 16:37:00,
2013-12-23 10:42:00,21.2,16.6,30.29,SW,225,4.7,5.9,82,0.00,,,0.00,WUHU216HW,2013-12-23 16:42:00,
2013-12-23 10:47:00,20.9,16.2,30.29,SSE,158,4.4,5.9,82,0.00,,,0.00,WUHU216HW,2013-12-23 16:47:00,
2013-12-23 10:52:00,20.5,15.6,30.29,SSW,203,2.8,5.9,81,0.00,,,0.00,WUHU216HW,2013-12-23 16:52:00,
2013-12-23 10:57:00,20.3,15.7,30.29,SSW,203,5.2,6.9,82,0.00,,,0.00,WUHU216HW,2013-12-23 16:57:00,
2013-12-23 11:02:00,20.5,15.8,30.29,SSW,203,5.9,6.9,82,0.00,,,0.00,WUHU216HW,2013-12-23 17:02:00,
2013-12-23 11:07:00,20.3,15.7,30.29,SSW,203,4.2,7.2,82,0.00,,,0.00,WUHU216HW,2013-12-23 17:07:00,
2013-12-23 11:12:00,20.5,15.8,30.29,SSE,158,6.9,7.2,82,0.00,,,0.00,WUHU216HW,2013-12-23 17:12:00,
2013-12-23 11:17:00,20.5,15.3,30.28,SSW,203,4.4,6.9,80,0.00,,,0.00,WUHU216HW,2013-12-23 17:17:00,
2013-12-23 11:22:00,20.5,15.3,30.28,South,180,4.7,6.9,80,0.00,,,0.00,WUHU216HW,2013-12-23 17:22:00,
2013-12-23 11:27:00,20.2,14.9,30.28,SSW,203,3.7,6.4,80,0.00,,,0.00,WUHU216HW,2013-12-23 17:27:00,
2013-12-23 11:32:00,20.3,15.4,30.28,South,180,5.2,6.4,81,0.00,,,0.00,WUHU216HW,2013-12-23 17:32:00,
2013-12-23 11:37:00,20.3,15.1,30.28,SSW,203,4.2,5.2,80,0.00,,,0.00,WUHU216HW,2013-12-23 17:37:00,
2013-12-23 11:42:00,20.0,14.1,30.28,SW,225,3.7,5.9,78,0.00,,,0.00,WUHU216HW,2013-12-23 17:42:00,
2013-12-23 11:47:00,19.8,14.0,30.28,WSW,248,3.4,5.9,78,0.00,,,0.00,WUHU216HW,2013-12-23 17:47:00,
2013-12-23 11:52:00,19.8,14.0,30.28,SSW,203,5.4,5.4,78,0.00,,,0.00,WUHU216HW,2013-12-23 17:52:00,
2013-12-23 11:57:00,19.6,14.1,30.28,WSW,248,7.4,7.4,79,0.00,,,0.00,WUHU216HW,2013-12-23 17:57:00,
2013-12-23 12:03:00,20.0,14.8,30.28,SSW,203,3.4,7.4,80,0.00,,,0.00,WUHU216HW,2013-12-23 18:03:00,
2013-12-23 12:08:00,20.2,14.7,30.28,SW,225,4.9,4.9,79,0.00,,,0.00,WUHU216HW,2013-12-23 18:08:00,
2013-12-23 12:13:00,20.3,14.9,30.28,WSW,248,2.8,5.9,79,0.00,,,0.00,WUHU216HW,2013-12-23 18:13:00,
2013-12-23 12:18:00,20.5,14.7,30.28,SW,225,4.2,5.9,78,0.00,,,0.00,WUHU216HW,2013-12-23 18:18:00,
2013-12-23 12:23:00,20.5,14.4,30.28,SSW,203,7.4,7.4,77,0.00,,,0.00,WUHU216HW,2013-12-23 18:23:00,
2013-12-23 12:28:00,20.5,14.0,30.28,SW,225,6.6,7.4,76,0.00,,,0.00,WUHU216HW,2013-12-23 18:28:00,
2013-12-23 12:33:00,20.3,13.6,30.28,South,180,5.9,6.6,75,0.00,,,0.00,WUHU216HW,2013-12-23 18:33:00,
2013-12-23 12:38:00,20.0,13.2,30.28,SSW,203,5.2,7.2,75,0.00,,,0.00,WUHU216HW,2013-12-23 18:38:00,
2013-12-23 12:43:00,19.8,12.8,30.28,SSW,203,5.6,7.2,74,0.00,,,0.00,WUHU216HW,2013-12-23 18:43:00,
2013-12-23 12:48:00,18.9,12.5,30.28,SW,225,5.2,5.6,76,0.00,,,0.00,WUHU216HW,2013-12-23 18:48:00,
2013-12-23 12:53:00,18.4,12.0,30.28,WSW,248,7.4,7.4,76,0.00,,,0.00,WUHU216HW,2013-12-23 18:53:00,
2013-12-23 12:58:00,17.8,12.1,30.28,SSW,203,4.7,7.6,78,0.00,,,0.00,WUHU216HW,2013-12-23 18:58:00,
2013-12-23 13:03:00,18.0,11.9,30.28,South,180,4.4,7.6,77,0.00,,,0.00,WUHU216HW,2013-12-23 19:03:00,
2013-12-23 13:08:00,17.6,11.5,30.28,West,270,3.4,6.2,77,0.00,,,0.00,WUHU216HW,2013-12-23 19:08:00,
2013-12-23 13:13:00,17.6,11.5,30.28,WSW,248,4.0,6.2,77,0.00,,,0.00,WUHU216HW,2013-12-23 19:13:00,
2013-12-23 13:18:00,17.3,11.3,30.28,SSW,203,5.2,5.9,77,0.00,,,0.00,WUHU216HW,2013-12-23 19:18:00,
2013-12-23 13:23:00,16.7,10.7,30.28,SSW,203,2.2,5.9,77,0.00,,,0.00,WUHU216HW,2013-12-23 19:23:00,
2013-12-23 13:28:00,16.4,10.7,30.29,SW,225,3.7,6.2,78,0.00,,,0.00,WUHU216HW,2013-12-23 19:28:00,
2013-12-23 13:33:00,16.6,10.9,30.29,SSE,158,5.6,6.2,78,0.00,,,0.00,WUHU216HW,2013-12-23 19:33:00,
2013-12-23 13:38:00,16.2,10.5,30.29,SSW,203,7.2,7.2,78,0.00,,,0.00,WUHU216HW,2013-12-23 19:38:00,
2013-12-23 13:43:00,16.0,10.4,30.29,SSW,203,4.2,7.2,78,0.00,,,0.00,WUHU216HW,2013-12-23 19:43:00,
2013-12-23 13:48:00,16.2,10.8,30.29,SSW,203,6.9,6.9,79,0.00,,,0.00,WUHU216HW,2013-12-23 19:48:00,
2013-12-23 13:54:00,15.8,10.2,30.29,SW,225,5.2,7.6,78,0.00,,,0.00,WUHU216HW,2013-12-23 19:54:00,
2013-12-23 13:59:00,16.0,10.6,30.29,WSW,248,6.2,7.6,79,0.00,,,0.00,WUHU216HW,2013-12-23 19:59:00,
2013-12-23 14:04:00,16.2,10.5,30.29,SW,225,5.2,6.9,78,0.00,,,0.00,WUHU216HW,2013-12-23 20:04:00,
2013-12-23 14:09:00,16.0,10.4,30.29,SW,225,6.9,7.4,78,0.00,,,0.00,WUHU216HW,2013-12-23 20:09:00,
2013-12-23 14:14:00,15.7,10.0,30.30,SW,225,4.2,7.4,78,0.00,,,0.00,WUHU216HW,2013-12-23 20:14:00,
2013-12-23 14:19:00,15.5,9.6,30.30,SW,225,6.2,6.9,77,0.00,,,0.00,WUHU216HW,2013-12-23 20:19:00,
2013-12-23 14:24:00,14.9,9.0,30.30,SSE,158,7.4,7.4,77,0.00,,,0.00,WUHU216HW,2013-12-23 20:24:00,
2013-12-23 14:29:00,14.6,8.6,30.30,SSW,203,6.4,7.4,77,0.00,,,0.00,WUHU216HW,2013-12-23 20:29:00,
2013-12-23 14:34:00,14.2,8.3,30.30,SW,225,4.4,7.2,77,0.00,,,0.00,WUHU216HW,2013-12-23 20:34:00,
2013-12-23 14:39:00,14.0,8.5,30.30,SSW,203,4.4,5.9,78,0.00,,,0.00,WUHU216HW,2013-12-23 20:39:00,
2013-12-23 14:44:00,14.0,8.5,30.31,SW,225,8.4,8.4,78,0.00,,,0.00,WUHU216HW,2013-12-23 20:44:00,
2013-12-23 14:49:00,14.0,8.5,30.31,SW,225,5.6,8.4,78,0.00,,,0.00,WUHU216HW,2013-12-23 20:49:00,
2013-12-23 14:54:00,13.9,8.3,30.31,South,180,5.4,7.6,78,0.00,,,0.00,WUHU216HW,2013-12-23 20:54:00,
2013-12-23 14:59:00,13.9,8.3,30.31,SSW,203,5.6,7.6,78,0.00,,,0.00,WUHU216HW,2013-12-23 20:59:00,
2013-12-23 15:04:00,13.9,8.3,30.31,SW,225,5.9,6.2,78,0.00,,,0.00,WUHU216HW,2013-12-23 21:04:00,
2013-12-23 15:09:00,13.7,7.7,30.31,WSW,248,2.8,7.2,77,0.00,,,0.00,WUHU216HW,2013-12-23 21:09:00,
2013-12-23 15:14:00,13.3,7.8,30.31,SSW,203,4.4,7.2,78,0.00,,,0.00,WUHU216HW,2013-12-23 21:14:00,
2013-12-23 15:19:00,13.1,7.8,30.31,West,270,6.9,8.9,79,0.00,,,0.00,WUHU216HW,2013-12-23 21:19:00,
2013-12-23 15:24:00,13.0,7.9,30.31,WSW,248,3.7,8.9,80,0.00,,,0.00,WUHU216HW,2013-12-23 21:24:00,
2013-12-23 15:29:00,13.0,7.9,30.31,WSW,248,5.9,6.4,80,0.00,,,0.00,WUHU216HW,2013-12-23 21:29:00,
2013-12-23 15:34:00,12.8,7.7,30.31,West,270,5.9,5.9,80,0.00,,,0.00,WUHU216HW,2013-12-23 21:34:00,
2013-12-23 15:39:00,12.6,7.6,30.32,SSW,203,4.2,5.9,80,0.00,,,0.00,WUHU216HW,2013-12-23 21:39:00,
2013-12-23 15:44:00,12.6,7.6,30.32,SW,225,4.9,6.9,80,0.00,,,0.00,WUHU216HW,2013-12-23 21:44:00,
2013-12-23 15:49:00,12.2,7.2,30.32,SSW,203,4.7,6.9,80,0.00,,,0.00,WUHU216HW,2013-12-23 21:49:00,
2013-12-23 15:54:00,12.2,7.2,30.32,WSW,248,3.7,5.9,80,0.00,,,0.00,WUHU216HW,2013-12-23 21:54:00,
2013-12-23 15:59:00,12.1,7.3,30.32,SW,225,3.7,5.9,81,0.00,,,0.00,WUHU216HW,2013-12-23 21:59:00,
2013-12-23 16:04:00,11.9,7.1,30.32,SW,225,4.7,5.9,81,0.00,,,0.00,WUHU216HW,2013-12-23 22:04:00,
2013-12-23 16:09:00,12.1,7.6,30.33,WSW,248,4.0,5.9,82,0.00,,,0.00,WUHU216HW,2013-12-23 22:09:00,
2013-12-23 16:14:00,12.1,7.3,30.33,WSW,248,4.4,5.2,81,0.00,,,0.00,WUHU216HW,2013-12-23 22:14:00,
2013-12-23 16:19:00,11.9,7.1,30.33,WSW,248,4.9,5.6,81,0.00,,,0.00,WUHU216HW,2013-12-23 22:19:00,
2013-12-23 16:24:00,11.9,7.1,30.33,West,270,9.8,9.8,81,0.00,,,0.00,WUHU216HW,2013-12-23 22:24:00,
2013-12-23 16:29:00,11.3,6.8,30.33,West,270,5.9,9.8,82,0.00,,,0.00,WUHU216HW,2013-12-23 22:29:00,
2013-12-23 16:34:00,11.2,6.4,30.33,SSW,203,9.6,9.8,81,0.00,,,0.00,WUHU216HW,2013-12-23 22:34:00,
2013-12-23 16:39:00,11.0,6.5,30.33,WSW,248,8.6,9.8,82,0.00,,,0.00,WUHU216HW,2013-12-23 22:39:00,
2013-12-23 16:44:00,10.6,6.1,30.33,WSW,248,5.2,8.6,82,0.00,,,0.00,WUHU216HW,2013-12-23 22:44:00,
2013-12-23 16:49:00,10.4,5.9,30.33,WSW,248,5.2,7.9,82,0.00,,,0.00,WUHU216HW,2013-12-23 22:49:00,
2013-12-23 16:54:00,10.4,5.9,30.33,SSW,203,3.2,7.9,82,0.00,,,0.00,WUHU216HW,2013-12-23 22:54:00,
2013-12-23 16:59:00,10.1,5.9,30.33,West,270,8.4,8.4,83,0.00,,,0.00,WUHU216HW,2013-12-23 22:59:00,
2013-12-23 17:04:00,9.7,5.6,30.33,WSW,248,3.7,8.4,83,0.00,,,0.00,WUHU216HW,2013-12-23 23:04:00,
2013-12-23 17:10:00,9.5,5.4,30.33,WSW,248,4.2,8.4,83,0.00,,,0.00,WUHU216HW,2013-12-23 23:10:00,
2013-12-23 17:15:00,9.2,5.1,30.34,West,270,6.9,8.4,83,0.00,,,0.00,WUHU216HW,2013-12-23 23:15:00,
2013-12-23 17:20:00,9.0,5.1,30.34,SW,225,4.9,8.4,84,0.00,,,0.00,WUHU216HW,2013-12-23 23:20:00,
2013-12-23 17:25:00,9.0,5.1,30.35,SW,225,4.4,6.2,84,0.00,,,0.00,WUHU216HW,2013-12-23 23:25:00,
2013-12-23 17:30:00,9.0,5.1,30.35,West,270,2.8,4.4,84,0.00,,,0.00,WUHU216HW,2013-12-23 23:30:00,
2013-12-23 17:35:00,9.0,5.1,30.35,WSW,248,5.2,5.2,84,0.00,,,0.00,WUHU216HW,2013-12-23 23:35:00,
2013-12-23 17:40:00,8.8,4.7,30.36,West,270,5.9,6.9,83,0.00,,,0.00,WUHU216HW,2013-12-23 23:40:00,
2013-12-23 17:45:00,8.5,4.3,30.36,SE,135,1.8,6.9,83,0.00,,,0.00,WUHU216HW,2013-12-23 23:45:00,
2013-12-23 17:50:00,8.3,4.1,30.36,WSW,248,4.0,6.4,83,0.00,,,0.00,WUHU216HW,2013-12-23 23:50:00,
2013-12-23 17:55:00,8.3,4.1,30.36,SW,225,2.4,6.4,83,0.00,,,0.00,WUHU216HW,2013-12-23 23:55:00,
2013-12-23 18:00:00,8.1,4.0,30.36,West,270,5.2,5.2,83,0.00,,,0.00,WUHU216HW,2013-12-24 00:00:00,
2013-12-23 18:05:00,7.9,3.8,30.36,SW,225,4.0,5.2,83,0.00,,,0.00,WUHU216HW,2013-12-24 00:05:00,
2013-12-23 18:10:00,7.6,3.4,30.37,West,270,4.7,6.9,83,0.00,,,0.00,WUHU216HW,2013-12-24 00:10:00,
2013-12-23 18:16:00,7.6,3.4,30.37,West,270,5.9,6.9,83,0.00,,,0.00,WUHU216HW,2013-12-24 00:16:00,
2013-12-23 18:21:00,7.4,3.2,30.37,WSW,248,2.8,7.9,83,0.00,,,0.00,WUHU216HW,2013-12-24 00:21:00,
2013-12-23 18:26:00,7.4,3.2,30.37,SSW,203,3.7,7.9,83,0.00,,,0.00,WUHU216HW,2013-12-24 00:26:00,
2013-12-23 18:31:00,7.2,3.1,30.37,West,270,8.4,8.4,83,0.00,,,0.00,WUHU216HW,2013-12-24 00:31:00,
2013-12-23 18:36:00,7.0,2.9,30.37,WSW,248,4.7,8.4,83,0.00,,,0.00,WUHU216HW,2013-12-24 00:36:00,
2013-12-23 18:41:00,7.0,2.9,30.38,SW,225,3.2,5.4,83,0.00,,,0.00,WUHU216HW,2013-12-24 00:41:00,
2013-12-23 18:46:00,7.0,3.2,30.38,SSE,158,3.0,4.4,84,0.00,,,0.00,WUHU216HW,2013-12-24 00:46:00,
2013-12-23 18:51:00,6.8,2.7,30.39,SW,225,2.8,5.4,83,0.00,,,0.00,WUHU216HW,2013-12-24 00:51:00,
2013-12-23 18:56:00,6.8,2.7,30.38,SW,225,4.4,7.6,83,0.00,,,0.00,WUHU216HW,2013-12-24 00:56:00,
2013-12-23 19:01:00,6.5,2.3,30.38,SSW,203,6.4,7.6,83,0.00,,,0.00,WUHU216HW,2013-12-24 01:01:00,
2013-12-23 19:06:00,6.1,2.0,30.39,SSW,203,5.2,6.9,83,0.00,,,0.00,WUHU216HW,2013-12-24 01:06:00,
2013-12-23 19:11:00,5.8,1.6,30.38,SW,225,6.6,6.9,83,0.00,,,0.00,WUHU216HW,2013-12-24 01:11:00,
2013-12-23 19:16:00,5.6,1.3,30.38,WSW,248,7.6,9.4,82,0.00,,,0.00,WUHU216HW,2013-12-24 01:16:00,
2013-12-23 19:21:00,5.4,1.1,30.39,West,270,4.4,9.4,82,0.00,,,0.00,WUHU216HW,2013-12-24 01:21:00,
2013-12-23 19:26:00,5.4,1.1,30.39,SW,225,3.7,8.4,82,0.00,,,0.00,WUHU216HW,2013-12-24 01:26:00,
2013-12-23 19:31:00,5.2,0.9,30.39,West,270,7.9,7.9,82,0.00,,,0.00,WUHU216HW,2013-12-24 01:31:00,
2013-12-23 19:36:00,5.0,0.7,30.39,West,270,6.6,7.9,82,0.00,,,0.00,WUHU216HW,2013-12-24 01:36:00,
2013-12-23 19:41:00,5.0,0.9,30.39,SSW,203,3.0,6.6,83,0.00,,,0.00,WUHU216HW,2013-12-24 01:41:00,
2013-12-23 19:46:00,4.7,0.4,30.39,SW,225,3.7,5.9,82,0.00,,,0.00,WUHU216HW,2013-12-24 01:46:00,
2013-12-23 19:51:00,4.7,0.4,30.39,WSW,248,4.4,5.9,82,0.00,,,0.00,WUHU216HW,2013-12-24 01:51:00,
2013-12-23 19:56:00,4.5,0.2,30.39,WSW,248,3.7,4.7,82,0.00,,,0.00,WUHU216HW,2013-12-24 01:56:00,
2013-12-23 20:01:00,4.3,0.0,30.38,WSW,248,3.0,6.4,82,0.00,,,0.00,WUHU216HW,2013-12-24 02:01:00,
2013-12-23 20:06:00,4.1,-0.2,30.39,SW,225,5.4,6.4,82,0.00,,,0.00,WUHU216HW,2013-12-24 02:06:00,
2013-12-23 20:11:00,4.0,-0.3,30.39,SW,225,3.7,5.4,82,0.00,,,0.00,WUHU216HW,2013-12-24 02:11:00,
2013-12-23 20:16:00,3.8,-0.5,30.39,SW,225,2.8,5.4,82,0.00,,,0.00,WUHU216HW,2013-12-24 02:16:00,
2013-12-23 20:21:00,3.6,-0.7,30.39,SW,225,4.9,6.9,82,0.00,,,0.00,WUHU216HW,2013-12-24 02:21:00,
2013-12-23 20:26:00,3.6,-0.7,30.39,WSW,248,3.7,6.9,82,0.00,,,0.00,WUHU216HW,2013-12-24 02:26:00,
2013-12-23 20:31:00,3.4,-0.9,30.39,SW,225,3.4,6.9,82,0.00,,,0.00,WUHU216HW,2013-12-24 02:31:00,
2013-12-23 20:36:00,3.4,-0.7,30.39,West,270,4.4,6.9,83,0.00,,,0.00,WUHU216HW,2013-12-24 02:36:00,
2013-12-23 20:41:00,3.2,-0.9,30.39,West,270,4.7,6.6,83,0.00,,,0.00,WUHU216HW,2013-12-24 02:41:00,
2013-12-23 20:46:00,3.2,-0.9,30.39,SSW,203,2.2,6.2,83,0.00,,,0.00,WUHU216HW,2013-12-24 02:46:00,
2013-12-23 20:51:00,3.2,-0.9,30.39,SW,225,3.2,6.2,83,0.00,,,0.00,WUHU216HW,2013-12-24 02:51:00,
2013-12-23 20:56:00,3.2,-0.9,30.39,West,270,3.0,4.9,83,0.00,,,0.00,WUHU216HW,2013-12-24 02:56:00,
2013-12-23 21:03:00,3.4,-0.4,30.39,West,270,3.0,5.2,84,0.00,,,0.00,WUHU216HW,2013-12-24 03:03:00,
2013-12-23 21:08:00,3.6,-0.3,30.39,WSW,248,4.2,5.2,84,0.00,,,0.00,WUHU216HW,2013-12-24 03:08:00,
2013-12-23 21:13:00,3.6,-0.3,30.39,West,270,4.7,4.7,84,0.00,,,0.00,WUHU216HW,2013-12-24 03:13:00,
2013-12-23 21:18:00,3.6,-0.3,30.39,WSW,248,4.9,4.9,84,0.00,,,0.00,WUHU216HW,2013-12-24 03:18:00,
2013-12-23 21:23:00,3.8,-0.1,30.39,SW,225,1.0,4.9,84,0.00,,,0.00,WUHU216HW,2013-12-24 03:23:00,
2013-12-23 21:28:00,3.8,-0.1,30.39,WSW,248,4.0,4.2,84,0.00,,,0.00,WUHU216HW,2013-12-24 03:28:00,
2013-12-23 21:33:00,3.8,-0.1,30.39,WSW,248,5.2,5.2,84,0.00,,,0.00,WUHU216HW,2013-12-24 03:33:00,
2013-12-23 21:38:00,3.8,-0.1,30.39,WSW,248,5.9,5.9,84,0.00,,,0.00,WUHU216HW,2013-12-24 03:38:00,
2013-12-23 21:43:00,3.8,-0.1,30.39,WSW,248,2.8,5.9,84,0.00,,,0.00,WUHU216HW,2013-12-24 03:43:00,
2013-12-23 21:48:00,4.0,0.1,30.39,West,270,5.2,5.2,84,0.00,,,0.00,WUHU216HW,2013-12-24 03:48:00,
2013-12-23 21:53:00,4.0,0.1,30.39,WSW,248,4.2,5.2,84,0.00,,,0.00,WUHU216HW,2013-12-24 03:53:00,
2013-12-23 21:58:00,4.0,0.1,30.39,WSW,248,4.4,4.4,84,0.00,,,0.00,WUHU216HW,2013-12-24 03:58:00,
2013-12-23 22:03:00,4.0,0.1,30.38,SSW,203,2.8,6.6,84,0.00,,,0.00,WUHU216HW,2013-12-24 04:03:00,
2013-12-23 22:08:00,4.0,0.4,30.39,West,270,4.2,6.6,85,0.00,,,0.00,WUHU216HW,2013-12-24 04:08:00,
2013-12-23 22:13:00,4.0,0.1,30.39,WSW,248,4.4,4.9,84,0.00,,,0.00,WUHU216HW,2013-12-24 04:13:00,
2013-12-23 22:19:00,4.0,0.1,30.39,SSW,203,1.0,4.4,84,0.00,,,0.00,WUHU216HW,2013-12-24 04:19:00,
2013-12-23 22:24:00,4.0,0.4,30.39,WSW,248,1.4,4.9,85,0.00,,,0.00,WUHU216HW,2013-12-24 04:24:00,
2013-12-23 22:29:00,4.3,0.7,30.39,West,270,4.0,4.9,85,0.00,,,0.00,WUHU216HW,2013-12-24 04:29:00,
2013-12-23 22:34:00,4.5,0.9,30.39,WSW,248,5.9,5.9,85,0.00,,,0.00,WUHU216HW,2013-12-24 04:34:00,
2013-12-23 22:39:00,4.9,1.3,30.39,WSW,248,7.6,7.6,85,0.00,,,0.00,WUHU216HW,2013-12-24 04:39:00,
2013-12-23 22:44:00,5.0,1.4,30.39,WSW,248,4.4,10.6,85,0.00,,,0.00,WUHU216HW,2013-12-24 04:44:00,
2013-12-23 22:49:00,5.0,1.4,30.39,West,270,4.4,10.6,85,0.00,,,0.00,WUHU216HW,2013-12-24 04:49:00,
2013-12-23 22:54:00,5.2,1.6,30.38,West,270,8.4,8.4,85,0.00,,,0.00,WUHU216HW,2013-12-24 04:54:00,
2013-12-23 22:59:00,5.0,1.4,30.39,West,270,8.4,8.4,85,0.00,,,0.00,WUHU216HW,2013-12-24 04:59:00,
2013-12-23 23:01:00,5.0,1.4,30.39,WNW,293,3.7,8.4,85,0.00,,,0.00,WUHU216HW,2013-12-24 05:01:00,
2013-12-23 23:06:00,5.0,1.2,30.39,West,270,6.6,8.4,84,0.00,,,0.00,WUHU216HW,2013-12-24 05:06:00,
2013-12-23 23:11:00,5.0,1.2,30.39,WNW,293,2.2,6.9,84,0.00,,,0.00,WUHU216HW,2013-12-24 05:11:00,
2013-12-23 23:17:00,5.0,1.2,30.39,WNW,293,4.2,6.2,84,0.00,,,0.00,WUHU216HW,2013-12-24 05:17:00,
2013-12-23 23:22:00,4.9,1.0,30.39,WNW,293,4.4,6.9,84,0.00,,,0.00,WUHU216HW,2013-12-24 05:22:00,
2013-12-23 23:27:00,4.9,1.0,30.39,NW,315,6.9,7.6,84,0.00,,,0.00,WUHU216HW,2013-12-24 05:27:00,
2013-12-23 23:32:00,4.9,1.0,30.39,West,270,5.9,7.6,84,0.00,,,0.00,WUHU216HW,2013-12-24 05:32:00,
2013-12-23 23:37:00,4.7,0.8,30.39,WNW,293,5.2,8.9,84,0.00,,,0.00,WUHU216HW,2013-12-24 05:37:00,
2013-12-23 23:42:00,4.7,0.5,30.39,WNW,293,4.4,8.9,83,0.00,,,0.00,WUHU216HW,2013-12-24 05:42:00,
2013-12-23 23:47:00,4.7,0.5,30.39,NW,315,4.9,5.2,83,0.00,,,0.00,WUHU216HW,2013-12-24 05:47:00,
2013-12-23 23:52:00,4.7,0.5,30.39,WNW,293,4.2,5.2,83,0.00,,,0.00,WUHU216HW,2013-12-24 05:52:00,
2013-12-23 23:57:00,4.7,0.5,30.39,West,270,2.0,4.7,83,0.00,,,0.00,WUHU216HW,2013-12-24 05:57:00,